Location: La Tine
(46.4708°N, 7.0525°E)
Time: 12:13:58
(UTC+00:00)

CSL-04 Debris - Visible Passes

Search period start: 16 January 2021 00:00
Search period end: 26 January 2021 00:00
Orbit: 826 x 849 km, 98.9° (Epoch: 16 January)

Date Brightness Start Highest point End Pass type
(mag) Time Alt. Az. Time Alt. Az. Time Alt. Az.
16 Jan 5.4 17:06:30 10° ESE 17:10:19 20° ENE 17:14:09 10° NNE visible
16 Jan 4.4 18:44:49 10° S 18:50:11 70° WSW 18:55:36 10° NNW visible
17 Jan 5.6 16:51:46 10° E 16:54:50 16° NE 16:57:54 10° NNE visible
17 Jan 4.0 18:29:05 10° SSE 18:34:29 88° ENE 18:39:55 10° NNW visible
17 Jan 6.9 20:12:58 10° WSW 20:15:37 14° W 20:18:16 10° WNW visible
18 Jan 4.0 18:13:29 10° SSE 18:18:48 66° ENE 18:24:10 10° N visible
18 Jan 6.6 19:55:59 10° SW 19:59:42 19° W 20:03:27 10° NW visible
19 Jan 6.9 06:31:14 10° NE 06:35:22 22° E 06:39:29 10° SE visible
19 Jan 4.3 17:57:59 10° SE 18:03:10 50° ENE 18:08:22 10° N visible
19 Jan 6.1 19:39:25 10° SSW 19:43:50 25° W 19:48:16 10° NW visible
20 Jan 7.1 06:16:11 10° NE 06:19:27 16° E 06:22:44 10° SE visible
20 Jan 4.6 17:42:39 10° SE 17:47:34 37° ENE 17:52:29 10° N visible
20 Jan 5.7 19:23:08 10° SSW 19:28:00 34° W 19:32:53 10° NNW visible
21 Jan 7.4 06:01:47 10° ENE 06:03:31 11° E 06:05:16 10° ESE visible
21 Jan 4.9 17:27:27 10° ESE 17:32:00 29° ENE 17:36:33 10° N visible
21 Jan 5.1 19:07:02 10° S 19:12:11 46° W 19:17:23 10° NNW visible
22 Jan 5.3 17:12:25 10° ESE 17:16:27 22° ENE 17:20:31 10° N visible
22 Jan 4.5 18:51:06 10° S 18:56:26 62° WSW 19:01:47 10° NNW visible
23 Jan 5.5 16:57:36 10° E 17:00:58 17° ENE 17:04:21 10° NNE visible
23 Jan 4.1 18:35:18 10° SSE 18:40:42 84° WSW 18:46:08 10° NNW visible
23 Jan 7.1 20:19:55 10° WSW 20:21:55 12° W 20:23:56 10° WNW visible
24 Jan 4.0 18:19:39 10° SSE 18:25:00 74° ENE 18:30:24 10° NNW visible
24 Jan 6.7 20:02:37 10° SW 20:06:00 17° W 20:09:23 10° NW visible
25 Jan 4.2 18:04:07 10° SE 18:09:21 55° ENE 18:14:37 10° N visible
25 Jan 6.3 19:45:55 10° SW 19:50:06 23° W 19:54:18 10° NW visible
